DMMCW EGKB-EGPC

Flight info

Callsign DMMCW
Flight time 2h 11m
Altitude 6000
Route VATON DCT WATFO DCT SAPCO DCT BEGAM DCT LAMMA DCT VP508/N0157F070
Aircraft PA24/L-SDGRY/S

Departure

Time 2026-05-08 10:03
Airport London Biggin Hill Airport (EGKB)

Arrival

Time 2026-05-08 12:14
Airport Wick John O'Groats Airport (EGPC)
Time Latitude Longitude Altitude Speed Heading
2026-05-08 09:37 51.33238 0.02993 565 ft 0 kts 294°
2026-05-08 09:56 51.33234 0.02978 569 ft 4 kts 195°
2026-05-08 09:56 51.33193 0.03017 571 ft 9 kts 164°
2026-05-08 09:56 51.33121 0.02995 572 ft 12 kts 202°
2026-05-08 09:57 51.32948 0.02866 577 ft 15 kts 204°
2026-05-08 09:57 51.32845 0.02803 582 ft 16 kts 208°
2026-05-08 09:57 51.32743 0.02711 559 ft 18 kts 205°
2026-05-08 09:58 51.32627 0.02625 564 ft 18 kts 205°
2026-05-08 09:58 51.32519 0.02545 569 ft 13 kts 187°
2026-05-08 09:58 51.32456 0.02566 571 ft 0 kts 162°
2026-05-08 10:01 51.32442 0.02576 571 ft 6 kts 145°
2026-05-08 10:01 51.32410 0.02670 572 ft 11 kts 112°
2026-05-08 10:01 51.32440 0.02742 571 ft 0 kts 17°
2026-05-08 10:02 51.32442 0.02742 571 ft 3 kts 19°
2026-05-08 10:02 51.32664 0.02912 561 ft 75 kts 26°
2026-05-08 10:02 51.33228 0.03328 728 ft 102 kts 27°
2026-05-08 10:02 51.33887 0.03800 1026 ft 112 kts 27°
2026-05-08 10:03 51.34642 0.04334 1329 ft 120 kts 33°
2026-05-08 10:03 51.35442 0.04698 1646 ft 127 kts
2026-05-08 10:03 51.36311 0.04374 1823 ft 136 kts 333°
2026-05-08 10:03 51.37078 0.03485 2034 ft 139 kts 311°
2026-05-08 10:04 51.37446 0.02046 2171 ft 144 kts 271°
2026-05-08 10:04 51.37203 0.00541 2387 ft 136 kts 242°
2026-05-08 10:04 51.36854 -0.00846 2594 ft 136 kts 244°
2026-05-08 10:04 51.36557 -0.02299 2739 ft 138 kts 250°
2026-05-08 10:05 51.36420 -0.03814 2909 ft 140 kts 265°
2026-05-08 10:05 51.36536 -0.05391 3058 ft 144 kts 278°
2026-05-08 10:05 51.36882 -0.06887 3207 ft 145 kts 295°
2026-05-08 10:05 51.37455 -0.08232 3360 ft 147 kts 304°
2026-05-08 10:06 51.38037 -0.09561 3549 ft 146 kts 297°
2026-05-08 10:06 51.38396 -0.11091 3670 ft 147 kts 278°
2026-05-08 10:06 51.38525 -0.12681 3899 ft 141 kts 270°
2026-05-08 10:06 51.38582 -0.14252 4039 ft 143 kts 269°
2026-05-08 10:07 51.38685 -0.15834 4197 ft 142 kts 274°
2026-05-08 10:07 51.38856 -0.17372 4344 ft 143 kts 279°
2026-05-08 10:07 51.39193 -0.18882 4449 ft 146 kts 292°
2026-05-08 10:07 51.39675 -0.20293 4671 ft 142 kts 297°
2026-05-08 10:08 51.40236 -0.21629 4774 ft 147 kts 303°
2026-05-08 10:08 51.40823 -0.22963 4953 ft 145 kts 300°
2026-05-08 10:08 51.41353 -0.24328 5098 ft 145 kts 296°
2026-05-08 10:08 51.41790 -0.25835 5109 ft 153 kts 280°
2026-05-08 10:09 51.42003 -0.27472 5276 ft 145 kts 278°
2026-05-08 10:09 51.42180 -0.28515 5396 ft 144 kts 282°
2026-05-08 10:09 51.42510 -0.30075 5398 ft 152 kts 288°
2026-05-08 10:09 51.43083 -0.31521 5497 ft 151 kts 307°
2026-05-08 10:10 51.43853 -0.32634 5593 ft 153 kts 321°
2026-05-08 10:10 51.44764 -0.33511 5657 ft 156 kts 330°
2026-05-08 10:10 51.45739 -0.34241 5781 ft 155 kts 335°
2026-05-08 10:10 51.46757 -0.34892 5788 ft 161 kts 338°
2026-05-08 10:11 51.47810 -0.35479 5902 ft 159 kts 339°
2026-05-08 10:11 51.48842 -0.36099 5977 ft 159 kts 336°
2026-05-08 10:11 51.49862 -0.36824 6041 ft 160 kts 330°
2026-05-08 10:11 51.50884 -0.37508 6092 ft 161 kts 343°
2026-05-08 10:12 51.52000 -0.37714 6112 ft 164 kts 358°
2026-05-08 10:12 51.53169 -0.37687 6063 ft 170 kts
2026-05-08 10:12 51.54329 -0.37581 6217 ft 164 kts
2026-05-08 10:12 51.55474 -0.37431 6252 ft 167 kts
2026-05-08 10:13 51.56640 -0.37225 6297 ft 168 kts
2026-05-08 10:13 51.57798 -0.36980 6254 ft 172 kts
2026-05-08 10:13 51.59038 -0.36831 6082 ft 179 kts
2026-05-08 10:13 51.60288 -0.36723 5989 ft 181 kts
2026-05-08 10:14 51.61550 -0.36545 5768 ft 188 kts
2026-05-08 10:14 51.62839 -0.36400 5743 ft 183 kts
2026-05-08 10:14 51.64099 -0.36558 5797 ft 178 kts 353°
2026-05-08 10:14 51.65314 -0.36823 5820 ft 176 kts 352°
2026-05-08 10:15 51.66513 -0.37122 5903 ft 171 kts 351°
2026-05-08 10:15 51.67672 -0.37451 5970 ft 171 kts 346°
2026-05-08 10:15 51.68825 -0.37943 6001 ft 172 kts 345°
2026-05-08 10:15 51.69943 -0.38655 6003 ft 174 kts 333°
2026-05-08 10:16 51.71040 -0.39484 6007 ft 174 kts 334°
2026-05-08 10:16 51.72139 -0.40309 6009 ft 175 kts 333°
2026-05-08 10:16 51.73231 -0.41166 6009 ft 174 kts 333°
2026-05-08 10:16 51.74308 -0.42063 6007 ft 175 kts 331°
2026-05-08 10:17 51.75366 -0.43025 6006 ft 174 kts 328°
2026-05-08 10:17 51.76413 -0.44006 6004 ft 174 kts 328°
2026-05-08 10:17 51.77455 -0.44986 5980 ft 174 kts 328°
2026-05-08 10:17 51.78502 -0.45964 5981 ft 174 kts 328°
2026-05-08 10:18 51.79550 -0.46950 5980 ft 174 kts 328°
2026-05-08 10:18 51.80600 -0.47944 5981 ft 175 kts 328°
2026-05-08 10:18 51.81643 -0.48962 5982 ft 175 kts 328°
2026-05-08 10:18 51.82680 -0.49987 5981 ft 175 kts 328°
2026-05-08 10:19 51.83723 -0.51032 5981 ft 176 kts 327°
2026-05-08 10:19 51.84756 -0.52076 5982 ft 175 kts 326°
2026-05-08 10:19 51.85767 -0.53203 5980 ft 177 kts 325°
2026-05-08 10:20 51.87802 -0.55440 5980 ft 175 kts 325°
2026-05-08 10:20 51.88807 -0.56570 5979 ft 176 kts 325°
2026-05-08 10:20 51.89806 -0.57688 5979 ft 174 kts 324°
2026-05-08 10:20 51.90806 -0.58818 5978 ft 174 kts 324°
2026-05-08 10:21 51.91798 -0.59940 5979 ft 175 kts 324°
2026-05-08 10:21 51.92779 -0.61065 5979 ft 174 kts 324°
2026-05-08 10:21 51.93778 -0.62192 5978 ft 176 kts 324°
2026-05-08 10:21 51.94779 -0.63335 5978 ft 177 kts 324°
2026-05-08 10:22 51.95791 -0.64479 5977 ft 176 kts 324°
2026-05-08 10:22 51.96791 -0.65610 5976 ft 174 kts 324°
2026-05-08 10:22 51.97790 -0.66744 5976 ft 176 kts 324°
2026-05-08 10:22 51.98772 -0.67893 5976 ft 174 kts 324°
2026-05-08 10:23 51.99762 -0.69028 5974 ft 175 kts 324°
2026-05-08 10:23 52.00761 -0.70170 5973 ft 176 kts 324°
2026-05-08 10:23 52.01763 -0.71298 5972 ft 175 kts 324°
2026-05-08 10:23 52.02763 -0.72446 5972 ft 177 kts 324°
2026-05-08 10:24 52.03766 -0.73601 5981 ft 176 kts 324°
2026-05-08 10:24 52.04761 -0.74757 5981 ft 176 kts 323°
2026-05-08 10:24 52.05746 -0.75922 5981 ft 175 kts 322°
2026-05-08 10:24 52.06701 -0.77111 5981 ft 174 kts 321°
2026-05-08 10:25 52.07665 -0.78307 5980 ft 174 kts 322°
2026-05-08 10:25 52.08629 -0.79499 5979 ft 174 kts 322°
2026-05-08 10:25 52.09594 -0.80698 5979 ft 175 kts 321°
2026-05-08 10:25 52.10557 -0.81906 5978 ft 174 kts 321°
2026-05-08 10:26 52.11523 -0.83108 5977 ft 175 kts 321°
2026-05-08 10:26 52.12491 -0.84318 5977 ft 176 kts 321°
2026-05-08 10:26 52.13459 -0.85519 5977 ft 175 kts 321°
2026-05-08 10:26 52.14427 -0.86729 5975 ft 175 kts 321°
2026-05-08 10:27 52.15391 -0.87946 5975 ft 175 kts 321°
2026-05-08 10:27 52.16353 -0.89159 5974 ft 175 kts 321°
2026-05-08 10:27 52.17316 -0.90373 5973 ft 175 kts 321°
2026-05-08 10:27 52.18267 -0.91571 5972 ft 175 kts 321°
2026-05-08 10:28 52.19241 -0.92809 5971 ft 175 kts 321°
2026-05-08 10:28 52.20191 -0.94024 5969 ft 176 kts 321°
2026-05-08 10:28 52.21154 -0.95251 5969 ft 176 kts 321°
2026-05-08 10:28 52.22114 -0.96490 5969 ft 176 kts 321°
2026-05-08 10:29 52.23069 -0.97728 5970 ft 175 kts 320°
2026-05-08 10:29 52.24026 -0.98954 5976 ft 176 kts 321°
2026-05-08 10:29 52.25007 -1.00170 5970 ft 177 kts 322°
2026-05-08 10:29 52.25990 -1.01387 5965 ft 178 kts 321°
2026-05-08 10:30 52.26970 -1.02620 5972 ft 178 kts 321°
2026-05-08 10:30 52.27957 -1.03843 5968 ft 178 kts 322°
2026-05-08 10:30 52.28945 -1.05055 5971 ft 177 kts 321°
2026-05-08 10:30 52.29917 -1.06292 5971 ft 177 kts 321°
2026-05-08 10:31 52.30893 -1.07522 5973 ft 177 kts 321°
2026-05-08 10:31 52.31868 -1.08741 5972 ft 176 kts 321°
2026-05-08 10:31 52.32834 -1.09971 5971 ft 176 kts 321°
2026-05-08 10:31 52.33805 -1.11196 5972 ft 176 kts 321°
2026-05-08 10:32 52.34770 -1.12428 5973 ft 176 kts 321°
2026-05-08 10:32 52.35735 -1.13657 5972 ft 176 kts 321°
2026-05-08 10:32 52.36701 -1.14883 5973 ft 176 kts 321°
2026-05-08 10:32 52.37663 -1.16111 5972 ft 176 kts 321°
2026-05-08 10:33 52.38627 -1.17344 5972 ft 176 kts 321°
2026-05-08 10:33 52.39592 -1.18570 5971 ft 175 kts 321°
2026-05-08 10:33 52.40555 -1.19798 5970 ft 176 kts 321°
2026-05-08 10:33 52.41517 -1.21032 5969 ft 176 kts 320°
2026-05-08 10:34 52.42481 -1.22265 5933 ft 176 kts 321°
2026-05-08 10:34 52.43446 -1.23501 5931 ft 176 kts 321°
2026-05-08 10:34 52.44410 -1.24736 5927 ft 176 kts 320°
2026-05-08 10:34 52.45375 -1.25975 5925 ft 176 kts 320°
2026-05-08 10:35 52.46336 -1.27218 5921 ft 176 kts 320°
2026-05-08 10:35 52.47295 -1.28457 5920 ft 176 kts 320°
2026-05-08 10:35 52.48254 -1.29700 5918 ft 176 kts 320°
2026-05-08 10:35 52.49209 -1.30950 5914 ft 176 kts 320°
2026-05-08 10:36 52.50156 -1.32180 5911 ft 176 kts 320°
2026-05-08 10:36 52.51107 -1.33433 5909 ft 176 kts 320°
2026-05-08 10:36 52.52067 -1.34691 5906 ft 176 kts 321°
2026-05-08 10:36 52.53028 -1.35927 5904 ft 175 kts 320°
2026-05-08 10:37 52.53984 -1.37180 5901 ft 176 kts 320°
2026-05-08 10:37 52.54942 -1.38438 5899 ft 177 kts 320°
2026-05-08 10:37 52.55904 -1.39684 5899 ft 176 kts 321°
2026-05-08 10:37 52.56966 -1.40690 5899 ft 177 kts 333°
2026-05-08 10:38 52.58084 -1.41546 5900 ft 177 kts 341°
2026-05-08 10:38 52.59256 -1.42150 5898 ft 177 kts 342°
2026-05-08 10:38 52.60429 -1.42766 5899 ft 176 kts 342°
2026-05-08 10:38 52.61596 -1.43365 5899 ft 176 kts 343°
2026-05-08 10:39 52.62769 -1.43981 5899 ft 177 kts 342°
2026-05-08 10:39 52.63940 -1.44600 5900 ft 177 kts 342°
2026-05-08 10:39 52.65116 -1.45213 5899 ft 177 kts 342°
2026-05-08 10:39 52.66290 -1.45827 5899 ft 177 kts 342°
2026-05-08 10:40 52.67448 -1.46440 5900 ft 177 kts 342°
2026-05-08 10:40 52.68623 -1.47040 5900 ft 177 kts 346°
2026-05-08 10:40 52.69825 -1.47502 5899 ft 177 kts 347°
2026-05-08 10:40 52.71021 -1.47960 5899 ft 177 kts 347°
2026-05-08 10:41 52.72224 -1.48441 5903 ft 177 kts 345°
2026-05-08 10:41 52.73409 -1.49012 5905 ft 177 kts 344°
2026-05-08 10:41 52.74596 -1.49534 5979 ft 176 kts 347°
2026-05-08 10:41 52.75791 -1.49993 5979 ft 176 kts 347°
2026-05-08 10:42 52.76990 -1.50433 5979 ft 176 kts 347°
2026-05-08 10:42 52.78186 -1.50884 5982 ft 176 kts 347°
2026-05-08 10:42 52.79383 -1.51347 5981 ft 177 kts 347°
2026-05-08 10:42 52.80582 -1.51810 5978 ft 177 kts 347°
2026-05-08 10:43 52.81773 -1.52279 5978 ft 176 kts 347°
2026-05-08 10:43 52.82965 -1.52749 5978 ft 177 kts 347°
2026-05-08 10:43 52.84159 -1.53224 5978 ft 176 kts 347°
2026-05-08 10:43 52.85339 -1.53691 5977 ft 177 kts 347°
2026-05-08 10:44 52.86534 -1.54171 5977 ft 177 kts 347°
2026-05-08 10:44 52.87726 -1.54652 5978 ft 176 kts 346°
2026-05-08 10:44 52.88912 -1.55122 5957 ft 172 kts 349°
2026-05-08 10:44 52.90110 -1.55416 5792 ft 176 kts 353°
2026-05-08 10:45 52.91336 -1.55708 5615 ft 179 kts 352°
2026-05-08 10:45 52.92547 -1.55983 5580 ft 173 kts 355°
2026-05-08 10:45 52.93742 -1.56137 5510 ft 173 kts 356°
2026-05-08 10:45 52.94944 -1.56286 5393 ft 174 kts 356°
2026-05-08 10:46 52.96154 -1.56434 5331 ft 173 kts 356°
2026-05-08 10:46 52.97355 -1.56577 5247 ft 173 kts 356°
2026-05-08 10:46 52.98557 -1.56732 5161 ft 174 kts 356°
2026-05-08 10:46 52.99761 -1.56895 5089 ft 173 kts 356°
2026-05-08 10:47 53.00945 -1.57197 4992 ft 173 kts 346°
2026-05-08 10:47 53.02067 -1.57922 4883 ft 173 kts 332°
2026-05-08 10:47 53.03059 -1.58996 4894 ft 167 kts 315°
2026-05-08 10:47 53.03713 -1.60532 4834 ft 166 kts 291°
2026-05-08 10:48 53.04136 -1.62316 4756 ft 165 kts 285°
2026-05-08 10:48 53.04500 -1.64113 4717 ft 164 kts 283°
2026-05-08 10:48 53.04841 -1.65916 4647 ft 164 kts 283°
2026-05-08 10:48 53.05191 -1.67719 4587 ft 164 kts 284°
2026-05-08 10:49 53.05689 -1.69422 4484 ft 166 kts 301°
2026-05-08 10:49 53.06418 -1.70938 4429 ft 168 kts 307°
2026-05-08 10:49 53.07186 -1.72395 4374 ft 168 kts 310°
2026-05-08 10:49 53.08013 -1.73776 4290 ft 169 kts 313°
2026-05-08 10:50 53.08842 -1.75152 4243 ft 168 kts 313°
2026-05-08 10:50 53.09684 -1.76486 4210 ft 167 kts 314°
2026-05-08 10:50 53.10513 -1.77829 4191 ft 166 kts 313°
2026-05-08 10:50 53.11321 -1.79222 4105 ft 168 kts 310°
2026-05-08 10:51 53.11980 -1.80821 4100 ft 169 kts 297°
2026-05-08 10:51 53.12542 -1.82534 4117 ft 168 kts 295°
2026-05-08 10:51 53.13091 -1.84258 4114 ft 169 kts 294°
2026-05-08 10:51 53.13619 -1.85993 4131 ft 168 kts 292°
2026-05-08 10:52 53.14110 -1.87718 4243 ft 163 kts 290°
2026-05-08 10:52 53.14564 -1.89480 4203 ft 168 kts 289°
2026-05-08 10:52 53.15008 -1.91290 4157 ft 169 kts 289°
2026-05-08 10:52 53.15431 -1.93106 4209 ft 166 kts 288°
2026-05-08 10:53 53.15877 -1.94872 4248 ft 166 kts 290°
2026-05-08 10:53 53.16389 -1.96610 4247 ft 168 kts 293°
2026-05-08 10:53 53.16885 -1.98376 4225 ft 169 kts 290°
2026-05-08 10:53 53.17428 -2.00121 4213 ft 169 kts 300°
2026-05-08 10:54 53.18148 -2.01677 4253 ft 169 kts 305°
2026-05-08 10:54 53.18882 -2.03194 4319 ft 168 kts 305°
2026-05-08 10:54 53.19577 -2.04760 4326 ft 168 kts 301°
2026-05-08 10:54 53.20243 -2.06362 4339 ft 169 kts 308°
2026-05-08 10:55 53.21125 -2.07659 4332 ft 171 kts 324°
2026-05-08 10:55 53.22203 -2.08514 4328 ft 172 kts 338°
2026-05-08 10:55 53.23307 -2.09232 4394 ft 170 kts 338°
2026-05-08 10:55 53.24408 -2.09957 4390 ft 171 kts 338°
2026-05-08 10:56 53.25526 -2.10620 4423 ft 170 kts 343°
2026-05-08 10:56 53.26684 -2.10956 4430 ft 172 kts 352°
2026-05-08 10:56 53.27868 -2.11181 4447 ft 169 kts 353°
2026-05-08 10:56 53.29045 -2.11352 4332 ft 171 kts 355°
2026-05-08 10:57 53.30235 -2.11511 4276 ft 172 kts 355°
2026-05-08 10:57 53.31421 -2.11661 4352 ft 169 kts 356°
2026-05-08 10:57 53.33401 -2.11808 4378 ft 172 kts 359°
2026-05-08 10:58 53.34594 -2.11848 4425 ft 171 kts 359°
2026-05-08 10:58 53.35784 -2.11832 4449 ft 171 kts
2026-05-08 10:58 53.37365 -2.11641 4475 ft 172 kts
2026-05-08 10:58 53.38170 -2.11477 4493 ft 172 kts
2026-05-08 10:59 53.39354 -2.11241 4520 ft 171 kts
2026-05-08 10:59 53.40546 -2.11032 4546 ft 171 kts
2026-05-08 10:59 53.41732 -2.10868 4573 ft 172 kts
2026-05-08 10:59 53.42927 -2.10712 4600 ft 172 kts
2026-05-08 11:00 53.44116 -2.10514 4611 ft 172 kts
2026-05-08 11:00 53.45306 -2.10270 4635 ft 172 kts
2026-05-08 11:00 53.46481 -2.09954 4640 ft 172 kts
2026-05-08 11:00 53.47670 -2.09949 4641 ft 173 kts 355°
2026-05-08 11:01 53.48867 -2.10068 4701 ft 172 kts 356°
2026-05-08 11:01 53.50061 -2.10156 4733 ft 172 kts 357°
2026-05-08 11:01 53.51260 -2.10211 4750 ft 171 kts 359°
2026-05-08 11:01 53.52451 -2.10265 4792 ft 171 kts 358°
2026-05-08 11:02 53.53644 -2.10301 4813 ft 172 kts
2026-05-08 11:02 53.56035 -2.10516 4854 ft 172 kts 350°
2026-05-08 11:02 53.57204 -2.10952 4866 ft 172 kts 345°
2026-05-08 11:03 53.58362 -2.11437 4899 ft 171 kts 345°
2026-05-08 11:03 53.59523 -2.11934 4912 ft 173 kts 344°
2026-05-08 11:03 53.60693 -2.12431 4915 ft 173 kts 345°
2026-05-08 11:03 53.61864 -2.12937 4913 ft 174 kts 344°
2026-05-08 11:04 53.63966 -2.13850 4918 ft 174 kts 345°
2026-05-08 11:04 53.66328 -2.14844 4917 ft 176 kts 344°
2026-05-08 11:04 53.68731 -2.15528 4917 ft 176 kts 351°
2026-05-08 11:04 53.71138 -2.16190 4914 ft 175 kts 349°
2026-05-08 11:05 53.73547 -2.16768 4910 ft 172 kts 352°
2026-05-08 11:05 53.75934 -2.17205 4913 ft 173 kts 349°
2026-05-08 11:05 53.78312 -2.17771 4911 ft 172 kts 354°
2026-05-08 11:05 53.80707 -2.17938 4912 ft 174 kts 354°
2026-05-08 11:06 53.83109 -2.18177 4910 ft 172 kts 354°
2026-05-08 11:06 53.85491 -2.18456 4911 ft 171 kts 356°
2026-05-08 11:06 53.87889 -2.18667 4911 ft 172 kts 354°
2026-05-08 11:06 53.90276 -2.18917 4910 ft 172 kts 356°
2026-05-08 11:07 53.92614 -2.19204 5062 ft 169 kts 354°
2026-05-08 11:07 53.94957 -2.19434 5135 ft 168 kts 355°
2026-05-08 11:07 53.97311 -2.19673 5137 ft 171 kts 356°
2026-05-08 11:07 53.99699 -2.19844 5144 ft 172 kts 354°
2026-05-08 11:08 54.02085 -2.20089 5140 ft 172 kts 354°
2026-05-08 11:08 54.04473 -2.20334 5133 ft 172 kts 355°
2026-05-08 11:08 54.06869 -2.20568 5132 ft 172 kts 354°
2026-05-08 11:08 54.09263 -2.20809 5134 ft 172 kts 354°
2026-05-08 11:09 54.11661 -2.21032 5135 ft 173 kts 354°
2026-05-08 11:09 54.14060 -2.21280 5136 ft 172 kts 354°
2026-05-08 11:09 54.16452 -2.21517 5137 ft 172 kts 354°
2026-05-08 11:09 54.18845 -2.21752 5137 ft 172 kts 354°
2026-05-08 11:10 54.21235 -2.21983 5134 ft 172 kts 354°
2026-05-08 11:10 54.23637 -2.22231 5136 ft 174 kts 355°
2026-05-08 11:10 54.26054 -2.22411 5135 ft 174 kts 353°
2026-05-08 11:10 54.28449 -2.22568 5133 ft 174 kts 354°
2026-05-08 11:11 54.30875 -2.22711 5132 ft 174 kts 356°
2026-05-08 11:11 54.33291 -2.22909 5130 ft 174 kts 352°
2026-05-08 11:11 54.35718 -2.23127 5132 ft 175 kts 354°
2026-05-08 11:11 54.38131 -2.23375 5133 ft 173 kts 353°
2026-05-08 11:12 54.40544 -2.23513 5135 ft 174 kts 354°
2026-05-08 11:12 54.42951 -2.23782 5134 ft 172 kts 352°
2026-05-08 11:12 54.45354 -2.24011 5137 ft 175 kts 353°
2026-05-08 11:12 54.47764 -2.24191 5136 ft 172 kts 355°
2026-05-08 11:13 54.50171 -2.24383 5134 ft 173 kts 354°
2026-05-08 11:13 54.52573 -2.24606 5134 ft 173 kts 354°
2026-05-08 11:13 54.54968 -2.24821 5133 ft 172 kts 353°
2026-05-08 11:13 54.57363 -2.24977 5133 ft 173 kts 355°
2026-05-08 11:14 54.59771 -2.25168 5132 ft 173 kts 351°
2026-05-08 11:14 54.62167 -2.25391 5129 ft 173 kts 353°
2026-05-08 11:14 54.64579 -2.25547 5127 ft 173 kts 352°
2026-05-08 11:14 54.66974 -2.25865 5127 ft 172 kts 351°
2026-05-08 11:15 54.69374 -2.26107 5130 ft 173 kts 352°
2026-05-08 11:15 54.71777 -2.26206 5131 ft 173 kts 356°
2026-05-08 11:15 54.74180 -2.26418 5129 ft 172 kts 353°
2026-05-08 11:15 54.76587 -2.26596 5131 ft 174 kts 352°
2026-05-08 11:16 54.78978 -2.26807 5132 ft 172 kts 354°
2026-05-08 11:16 54.81345 -2.27075 5127 ft 173 kts 350°
2026-05-08 11:16 54.83734 -2.27310 5128 ft 171 kts 353°
2026-05-08 11:16 54.86102 -2.27567 5119 ft 171 kts 352°
2026-05-08 11:17 54.88475 -2.27795 5115 ft 170 kts 354°
2026-05-08 11:17 54.90849 -2.27980 5113 ft 172 kts 352°
2026-05-08 11:17 54.93233 -2.28317 5113 ft 172 kts 353°
2026-05-08 11:17 54.95619 -2.28627 5108 ft 172 kts 352°
2026-05-08 11:18 54.96936 -2.28761 5105 ft 171 kts 353°
2026-05-08 11:18 54.98129 -2.28904 5103 ft 172 kts 352°
2026-05-08 11:18 54.99334 -2.29041 5104 ft 173 kts 353°
2026-05-08 11:18 55.00531 -2.29176 5103 ft 173 kts 353°
2026-05-08 11:19 55.01736 -2.29321 5101 ft 174 kts 352°
2026-05-08 11:19 55.02930 -2.29509 5100 ft 171 kts 352°
2026-05-08 11:19 55.04121 -2.29649 5100 ft 172 kts 352°
2026-05-08 11:19 55.05326 -2.29816 5101 ft 174 kts 352°
2026-05-08 11:20 55.06526 -2.29990 5101 ft 172 kts 352°
2026-05-08 11:20 55.07721 -2.30158 5101 ft 172 kts 352°
2026-05-08 11:20 55.08921 -2.30349 5102 ft 173 kts 352°
2026-05-08 11:20 55.10117 -2.30529 5101 ft 173 kts 351°
2026-05-08 11:21 55.11312 -2.30719 5101 ft 172 kts 352°
2026-05-08 11:21 55.12507 -2.30883 5102 ft 172 kts 353°
2026-05-08 11:21 55.13704 -2.31039 5103 ft 172 kts 352°
2026-05-08 11:21 55.14873 -2.31233 5104 ft 171 kts 351°
2026-05-08 11:22 55.16063 -2.31428 5103 ft 172 kts 352°
2026-05-08 11:22 55.17266 -2.31604 5104 ft 174 kts 351°
2026-05-08 11:22 55.18472 -2.31770 5105 ft 173 kts 352°
2026-05-08 11:22 55.19671 -2.31940 5107 ft 172 kts 351°
2026-05-08 11:23 55.20863 -2.32138 5107 ft 173 kts 351°
2026-05-08 11:23 55.22066 -2.32332 5109 ft 173 kts 351°
2026-05-08 11:23 55.23270 -2.32522 5108 ft 175 kts 351°
2026-05-08 11:23 55.24470 -2.32711 5115 ft 172 kts 351°
2026-05-08 11:24 55.25670 -2.32922 5111 ft 172 kts 351°
2026-05-08 11:24 55.26864 -2.33118 5111 ft 172 kts 351°
2026-05-08 11:24 55.28048 -2.33312 5110 ft 172 kts 352°
2026-05-08 11:24 55.29246 -2.33484 5113 ft 173 kts 351°
2026-05-08 11:25 55.30448 -2.33684 5114 ft 173 kts 351°
2026-05-08 11:25 55.31650 -2.33895 5115 ft 173 kts 352°
2026-05-08 11:25 55.32839 -2.34083 5116 ft 172 kts 351°
2026-05-08 11:25 55.34033 -2.34304 5117 ft 173 kts 351°
2026-05-08 11:26 55.35233 -2.34517 5120 ft 173 kts 351°
2026-05-08 11:26 55.36428 -2.34733 5121 ft 171 kts 350°
2026-05-08 11:26 55.37612 -2.34972 5121 ft 171 kts 350°
2026-05-08 11:26 55.38789 -2.35181 5125 ft 170 kts 351°
2026-05-08 11:27 55.39982 -2.35403 5126 ft 172 kts 352°
2026-05-08 11:27 55.41175 -2.35605 5125 ft 172 kts 349°
2026-05-08 11:27 55.42362 -2.35827 5125 ft 172 kts 351°
2026-05-08 11:27 55.43557 -2.36037 5125 ft 173 kts 350°
2026-05-08 11:28 55.44750 -2.36281 5123 ft 173 kts 350°
2026-05-08 11:28 55.45948 -2.36510 5122 ft 173 kts 351°
2026-05-08 11:28 55.47131 -2.36735 5122 ft 174 kts 350°
2026-05-08 11:28 55.48337 -2.36937 5122 ft 173 kts 350°
2026-05-08 11:29 55.49534 -2.37176 5119 ft 173 kts 349°
2026-05-08 11:29 55.50720 -2.37409 5122 ft 171 kts 350°
2026-05-08 11:29 55.51909 -2.37641 5120 ft 173 kts 351°
2026-05-08 11:29 55.53104 -2.37870 5119 ft 173 kts 350°
2026-05-08 11:30 55.54297 -2.38106 5120 ft 172 kts 350°
2026-05-08 11:30 55.55484 -2.38334 5122 ft 172 kts 349°
2026-05-08 11:30 55.56678 -2.38547 5123 ft 171 kts 350°
2026-05-08 11:30 55.57862 -2.38797 5122 ft 172 kts 350°
2026-05-08 11:31 55.59052 -2.39018 5119 ft 172 kts 350°
2026-05-08 11:31 55.60249 -2.39257 5119 ft 172 kts 349°
2026-05-08 11:31 55.61435 -2.39491 5119 ft 172 kts 349°
2026-05-08 11:31 55.62621 -2.39730 5120 ft 171 kts 350°
2026-05-08 11:32 55.63804 -2.39969 5119 ft 171 kts 350°
2026-05-08 11:32 55.64987 -2.40210 5119 ft 171 kts 350°
2026-05-08 11:32 55.66176 -2.40443 5119 ft 172 kts 349°
2026-05-08 11:32 55.67355 -2.40700 5118 ft 171 kts 349°
2026-05-08 11:33 55.68531 -2.40966 5121 ft 169 kts 349°
2026-05-08 11:33 55.69703 -2.41214 5122 ft 170 kts 350°
2026-05-08 11:33 55.70876 -2.41464 5122 ft 170 kts 349°
2026-05-08 11:33 55.72034 -2.41716 5121 ft 169 kts 349°
2026-05-08 11:34 55.73201 -2.41953 5119 ft 168 kts 349°
2026-05-08 11:34 55.74365 -2.42195 5119 ft 167 kts 349°
2026-05-08 11:34 55.75519 -2.42469 5121 ft 168 kts 351°
2026-05-08 11:34 55.76689 -2.42667 5131 ft 170 kts 353°
2026-05-08 11:35 55.77870 -2.42969 5119 ft 170 kts 347°
2026-05-08 11:35 55.79045 -2.43174 5118 ft 170 kts 347°
2026-05-08 11:35 55.80207 -2.43458 5115 ft 167 kts 348°
2026-05-08 11:35 55.81353 -2.43706 5112 ft 166 kts 347°
2026-05-08 11:36 55.82499 -2.43975 5108 ft 166 kts 349°
2026-05-08 11:36 55.83637 -2.44234 5109 ft 165 kts 348°
2026-05-08 11:36 55.84769 -2.44489 5113 ft 164 kts 348°
2026-05-08 11:36 55.85887 -2.44736 5115 ft 164 kts 348°
2026-05-08 11:37 55.87030 -2.44992 5114 ft 164 kts 349°
2026-05-08 11:37 55.88161 -2.45250 5116 ft 164 kts 348°
2026-05-08 11:37 55.89292 -2.45522 5116 ft 164 kts 348°
2026-05-08 11:37 55.90422 -2.45791 5116 ft 164 kts 348°
2026-05-08 11:38 55.91541 -2.46059 5116 ft 164 kts 348°
2026-05-08 11:38 55.92675 -2.46322 5117 ft 164 kts 348°
2026-05-08 11:38 55.93808 -2.46581 5117 ft 165 kts 348°
2026-05-08 11:38 55.94943 -2.46860 5117 ft 164 kts 348°
2026-05-08 11:39 55.96078 -2.47135 5114 ft 164 kts 348°
2026-05-08 11:39 55.97209 -2.47408 5109 ft 164 kts 348°
2026-05-08 11:39 55.98336 -2.47679 5113 ft 164 kts 347°
2026-05-08 11:39 55.99469 -2.47961 5115 ft 164 kts 348°
2026-05-08 11:40 56.00602 -2.48237 5114 ft 164 kts 347°
2026-05-08 11:40 56.01732 -2.48509 5114 ft 164 kts 348°
2026-05-08 11:40 56.02862 -2.48780 5114 ft 164 kts 348°
2026-05-08 11:40 56.03993 -2.49053 5113 ft 164 kts 348°
2026-05-08 11:41 56.05123 -2.49334 5112 ft 164 kts 347°
2026-05-08 11:41 56.06251 -2.49622 5115 ft 164 kts 347°
2026-05-08 11:41 56.07382 -2.49912 5112 ft 164 kts 347°
2026-05-08 11:41 56.08499 -2.50195 5102 ft 165 kts 348°
2026-05-08 11:42 56.09636 -2.50464 5104 ft 165 kts 347°
2026-05-08 11:42 56.10767 -2.50774 5103 ft 164 kts 346°
2026-05-08 11:42 56.11895 -2.51068 5102 ft 164 kts 347°
2026-05-08 11:42 56.13024 -2.51359 5102 ft 164 kts 347°
2026-05-08 11:43 56.14155 -2.51656 5101 ft 164 kts 347°
2026-05-08 11:43 56.15279 -2.51951 5098 ft 164 kts 347°
2026-05-08 11:43 56.16413 -2.52252 5102 ft 165 kts 347°
2026-05-08 11:43 56.17548 -2.52556 5101 ft 165 kts 347°
2026-05-08 11:44 56.19331 -2.53029 5105 ft 164 kts 347°
2026-05-08 11:44 56.21584 -2.53648 5105 ft 164 kts 347°
2026-05-08 11:44 56.23792 -2.54639 5106 ft 163 kts 338°
2026-05-08 11:44 56.25951 -2.55815 5124 ft 163 kts 339°
2026-05-08 11:45 56.28177 -2.56992 5129 ft 171 kts 338°
2026-05-08 11:45 56.30446 -2.58475 5099 ft 174 kts 334°
2026-05-08 11:45 56.32655 -2.60205 5094 ft 173 kts 320°
2026-05-08 11:45 56.34651 -2.62459 5106 ft 169 kts 317°
2026-05-08 11:46 56.36567 -2.64844 5106 ft 167 kts 322°
2026-05-08 11:46 56.37857 -2.66367 5094 ft 166 kts 326°
2026-05-08 11:46 56.39971 -2.68055 5067 ft 172 kts 304°
2026-05-08 11:46 56.41797 -2.70423 5116 ft 166 kts 336°
2026-05-08 11:47 56.43775 -2.72623 5108 ft 166 kts 322°
2026-05-08 11:47 56.45729 -2.74895 5100 ft 167 kts 324°
2026-05-08 11:47 56.47719 -2.77080 5092 ft 167 kts 320°
2026-05-08 11:47 56.49692 -2.79262 5094 ft 166 kts 322°
2026-05-08 11:48 56.51665 -2.81414 5099 ft 166 kts 322°
2026-05-08 11:48 56.53638 -2.83590 5099 ft 166 kts 322°
2026-05-08 11:48 56.55595 -2.85763 5085 ft 164 kts 329°
2026-05-08 11:48 56.57557 -2.87917 5102 ft 164 kts 319°
2026-05-08 11:49 56.59470 -2.90168 5106 ft 162 kts 318°
2026-05-08 11:49 56.61237 -2.92585 5097 ft 158 kts 318°
2026-05-08 11:49 56.63042 -2.94869 5094 ft 158 kts 320°
2026-05-08 11:49 56.64896 -2.97034 5095 ft 159 kts 320°
2026-05-08 11:50 56.66732 -2.99254 5093 ft 158 kts 321°
2026-05-08 11:50 56.68563 -3.01500 5091 ft 159 kts 320°
2026-05-08 11:50 56.70403 -3.03736 5090 ft 159 kts 320°
2026-05-08 11:50 56.72243 -3.05985 5090 ft 159 kts 320°
2026-05-08 11:51 56.74083 -3.08229 5088 ft 160 kts 320°
2026-05-08 11:51 56.75932 -3.10490 5079 ft 160 kts 320°
2026-05-08 11:51 56.77989 -3.11496 5076 ft 165 kts
2026-05-08 11:51 56.80302 -3.10821 5094 ft 170 kts
2026-05-08 11:52 56.82658 -3.10178 5086 ft 171 kts
2026-05-08 11:52 56.85019 -3.09656 5083 ft 171 kts
2026-05-08 11:52 56.87384 -3.08914 5083 ft 172 kts
2026-05-08 11:52 56.89763 -3.08729 5082 ft 171 kts 359°
2026-05-08 11:53 56.92136 -3.08361 5065 ft 172 kts 355°
2026-05-08 11:53 56.94510 -3.08106 5076 ft 170 kts
2026-05-08 11:53 56.96887 -3.07694 5073 ft 172 kts 360°
2026-05-08 11:53 56.99256 -3.07247 5073 ft 171 kts
2026-05-08 11:54 57.01644 -3.06985 5073 ft 172 kts 359°
2026-05-08 11:54 57.04020 -3.06500 5070 ft 171 kts
2026-05-08 11:54 57.06391 -3.06101 5069 ft 172 kts 356°
2026-05-08 11:54 57.08760 -3.05816 5073 ft 171 kts
2026-05-08 11:55 57.11139 -3.05468 5071 ft 171 kts 359°
2026-05-08 11:55 57.13520 -3.05625 5065 ft 170 kts 344°
2026-05-08 11:55 57.15851 -3.06204 5071 ft 168 kts 346°
2026-05-08 11:55 57.18165 -3.06916 5068 ft 169 kts 343°
2026-05-08 11:56 57.20477 -3.07667 5067 ft 169 kts 346°
2026-05-08 11:56 57.22785 -3.08508 5063 ft 168 kts 342°
2026-05-08 11:56 57.25093 -3.08164 5064 ft 170 kts
2026-05-08 11:56 57.27444 -3.07360 5061 ft 172 kts
2026-05-08 11:57 57.29826 -3.07053 5055 ft 172 kts
2026-05-08 11:57 57.32142 -3.06283 5063 ft 171 kts
2026-05-08 11:57 57.34524 -3.05705 5062 ft 174 kts
2026-05-08 11:57 57.36954 -3.05014 5052 ft 175 kts
2026-05-08 11:58 57.39352 -3.04259 5059 ft 176 kts 357°
2026-05-08 11:58 57.41719 -3.03694 5056 ft 173 kts
2026-05-08 11:58 57.44112 -3.03029 5053 ft 173 kts
2026-05-08 11:59 57.48895 -3.01580 5044 ft 174 kts
2026-05-08 11:59 57.51286 -3.00744 5048 ft 176 kts 356°
2026-05-08 11:59 57.53681 -3.00673 5054 ft 171 kts 359°
2026-05-08 11:59 57.56038 -3.00131 5044 ft 171 kts
2026-05-08 12:00 57.58413 -3.00101 5055 ft 169 kts 356°
2026-05-08 12:00 57.60770 -2.99997 5055 ft 170 kts 357°
2026-05-08 12:00 57.63155 -2.99853 5052 ft 173 kts 357°
2026-05-08 12:00 57.65564 -2.99661 5049 ft 174 kts 356°
2026-05-08 12:01 57.67983 -2.99507 5048 ft 173 kts 357°
2026-05-08 12:01 57.70359 -2.99280 5048 ft 174 kts 356°
2026-05-08 12:01 57.72767 -2.99114 5064 ft 173 kts 357°
2026-05-08 12:01 57.75173 -2.98921 5065 ft 173 kts 357°
2026-05-08 12:02 57.77576 -2.98746 5065 ft 173 kts 356°
2026-05-08 12:02 57.79978 -2.98576 5065 ft 173 kts 356°
2026-05-08 12:02 57.82385 -2.98402 5064 ft 173 kts 357°
2026-05-08 12:02 57.84791 -2.98223 5064 ft 172 kts 356°
2026-05-08 12:03 57.87186 -2.98299 5061 ft 172 kts 352°
2026-05-08 12:03 57.89580 -2.98425 5074 ft 173 kts 353°
2026-05-08 12:03 57.92006 -2.98455 5059 ft 175 kts 352°
2026-05-08 12:03 57.94450 -2.98521 5059 ft 175 kts 349°
2026-05-08 12:04 57.96858 -2.98936 5056 ft 173 kts 347°
2026-05-08 12:04 57.99253 -2.99316 5054 ft 173 kts 347°
2026-05-08 12:04 58.01648 -2.99705 5048 ft 173 kts 347°
2026-05-08 12:04 58.04035 -3.00098 5069 ft 172 kts 347°
2026-05-08 12:05 58.06389 -3.00600 5070 ft 172 kts 345°
2026-05-08 12:05 58.08764 -3.01198 5016 ft 173 kts 344°
2026-05-08 12:05 58.11154 -3.01828 4658 ft 175 kts 345°
2026-05-08 12:05 58.13550 -3.02526 4384 ft 173 kts 342°
2026-05-08 12:06 58.15874 -3.03455 4154 ft 169 kts 339°
2026-05-08 12:06 58.18150 -3.04526 3912 ft 168 kts 338°
2026-05-08 12:06 58.20422 -3.05498 3657 ft 168 kts 342°
2026-05-08 12:06 58.22746 -3.06043 3387 ft 169 kts 348°
2026-05-08 12:07 58.25107 -3.06244 3170 ft 170 kts 351°
2026-05-08 12:07 58.27477 -3.06283 2968 ft 171 kts 353°
2026-05-08 12:07 58.29741 -3.06314 2790 ft 171 kts 352°
2026-05-08 12:07 58.30927 -3.06333 2697 ft 171 kts 353°
2026-05-08 12:08 58.32116 -3.06351 2596 ft 171 kts 352°
2026-05-08 12:08 58.33303 -3.06371 2498 ft 170 kts 353°
2026-05-08 12:08 58.34487 -3.06345 2404 ft 169 kts 353°
2026-05-08 12:08 58.35636 -3.06434 2360 ft 162 kts 343°
2026-05-08 12:09 58.36698 -3.07002 2277 ft 158 kts 330°
2026-05-08 12:09 58.37668 -3.07981 2105 ft 158 kts 319°
2026-05-08 12:09 58.38535 -3.09145 2086 ft 149 kts 316°
2026-05-08 12:09 58.39383 -3.10309 1983 ft 147 kts 319°
2026-05-08 12:10 58.40186 -3.11279 2008 ft 126 kts 314°
2026-05-08 12:10 58.40828 -3.12326 1957 ft 120 kts 310°
2026-05-08 12:10 58.41423 -3.13369 1958 ft 114 kts 310°
2026-05-08 12:10 58.42019 -3.14385 1862 ft 117 kts 310°
2026-05-08 12:11 58.42630 -3.15418 1752 ft 118 kts 309°
2026-05-08 12:11 58.43230 -3.16478 1620 ft 113 kts 310°
2026-05-08 12:11 58.43796 -3.17409 1553 ft 104 kts 310°
2026-05-08 12:11 58.44335 -3.18238 1469 ft 95 kts 311°
2026-05-08 12:12 58.44912 -3.18845 1331 ft 97 kts 337°
2026-05-08 12:12 58.45589 -3.18649 1209 ft 104 kts
2026-05-08 12:12 58.46263 -3.18054 1098 ft 110 kts 13°
2026-05-08 12:12 58.46913 -3.17349 1082 ft 106 kts 31°
2026-05-08 12:13 58.47352 -3.16196 989 ft 107 kts 54°
2026-05-08 12:13 58.47620 -3.14855 959 ft 109 kts 82°
2026-05-08 12:13 58.47559 -3.13436 839 ft 108 kts 114°
2026-05-08 12:13 58.47167 -3.12294 647 ft 94 kts 142°
2026-05-08 12:14 58.46763 -3.11490 476 ft 81 kts 142°
2026-05-08 12:14 58.46419 -3.10656 251 ft 77 kts 135°
2026-05-08 12:14 58.46134 -3.09939 143 ft 60 kts 135°
2026-05-08 12:14 58.45928 -3.09431 127 ft 36 kts 128°
2026-05-08 12:15 58.45805 -3.09118 131 ft 25 kts 127°
2026-05-08 12:15 58.45751 -3.08966 133 ft 7 kts 107°
2026-05-08 12:15 58.45769 -3.08797 128 ft 19 kts 76°
2026-05-08 12:15 58.45799 -3.08520 131 ft 20 kts 86°
2026-05-08 12:16 58.45815 -3.08471 131 ft 9 kts 292°
2026-05-08 12:16 58.45821 -3.08499 131 ft 0 kts 292°